Weather in Karkaralinsk

Kazakhstan     49°24′44″N   75°28′12″E
temp.,
°C
wind,
m/s
gust,
m/s
humid.,
%
clouds,
%
prec.,
mm/h
press.,
hPa
HPBL,
m
16 april, fri
fri1600:00+8e22580 0.0 102315
03:00+6e22650 0.0 102110
06:00+5ese22730 0.0 102110
09:00+10e24510 0.0 1020418
12:00+13ene22320 0.0 10191188
15:00+16ene22220 0.0 10161794
18:00+16ne122099 0.0 10152118
21:00+12nne333398 0.0 101645
17 april, sat
sat1700:00+10ne3347100 0.0 101527
03:00+9ne225367 0.0 101514
06:00+7nne3359100 0.0 101723
09:00+8ne67737 0.0 1019461
12:00+8ne657462 0.0 1020596
15:00+10ne54638 0.0 1020721
18:00+9ne556112 0.0 1021861
21:00+6e35740 0.0 1022175
18 april, sun
sun1800:00+5se22792 0.0 102138
03:00+4ssw228317 0.0 102010
06:00+4sw228369 0.0 101910
09:00+9wsw35586 0.0 1018507
12:00+13w68355 0.0 10161577
15:00+15w89245 0.0 10142286
18:00+15wnw8123315 0.0 10122605
21:00+11wnw25588 0.1 1014173
19 april, mon
mon1900:00+6n7882100 0.1 1017490
03:00+2n5575100 0.1 1020516
06:00−1nne557889 0.1 1023529
09:00−2nne6576100 0.2 1026693
12:000ne5457100 0.3 10251063
15:00+2nne4340100 0.0 10251513
18:00+1nne6535100 0.0 10251463
21:00−2ne7738100 0.0 10271072
20 april, tue
tue2000:00−4ne8939100 0.0 1029846
03:00−6ne8943100 0.0 1030726
06:00−7ne7846100 0.0 1031716
09:00−6ne7842100 0.0 1032980
12:00−3ne78320 0.0 10301312
15:00−1ne88250 0.0 10291444
18:00−2ne78250 0.0 10291319
21:00−5ne58330 0.0 1031420